Date_and_time,latitude,longitude,wind_speed,RelWindDirFrom,WindDirFrom,air_pressure,air_temperature,relative_humidity,Temp,platform_speed_wrt_ground,air_pressure_at_mean_sea_level,platform_orientation
2019-10-21 23:50,50.630415,-96.98077,14.5,22.2,328,983.98,4.5,80,6.89,0.0,1011.21,90.0
2019-10-22 00:00,50.6304266666667,-96.9807483333333,15.4,24.4,331,983.98,4.5,79,6.87,0.0,1011.22,68.5
2019-10-22 00:10,50.6304283333333,-96.9807566666667,15.5,22.5,336,984.09,4.5,79,6.87,0.0,1011.33,68.5
2019-10-22 00:20,50.6304283333333,-96.98076,14.8,23.5,331,984.06,4.4,79,6.87,0.0,1011.31,68.5
2019-10-22 00:30,50.63043,-96.9807566666667,16.2,26.2,333,983.93,4.4,80,6.87,0.0,1011.19,68.5
2019-10-22 00:40,50.63045,-96.9807666666667,16.3,20.9,335,984.02,4.3,81,6.87,0.0,1011.29,68.5
2019-10-22 00:50,50.630445,-96.980765,14.4,20.5,333,984.16,4.2,82,6.87,0.0,1011.44,68.5
2019-10-22 01:00,50.630445,-96.9807633333333,14.6,21.0,329,984.08,4.1,83,6.86,0.0,1011.38,18.9
2019-10-22 01:10,50.6304416666667,-96.9807616666667,16.1,22.3,334,983.99,4.0,84,6.85,0.0,1011.30,18.9
2019-10-22 01:20,50.63044,-96.9807633333333,16.9,23.3,334,983.86,3.9,84,6.85,0.0,1011.18,18.9
2019-10-22 01:30,50.6304383333333,-96.980765,19.2,26.9,338,983.71,3.8,84,6.85,0.0,1011.03,18.9
2019-10-22 01:40,50.63044,-96.9807633333333,14.2,19.6,333,983.91,3.6,86,6.85,0.0,1011.25,18.9
2019-10-22 01:50,50.6304383333333,-96.980765,15.0,19.2,339,983.93,3.5,89,6.85,0.0,1011.27,18.9
2019-10-22 02:00,50.6304283333333,-96.9807716666667,18.2,25.5,341,983.73,3.4,90,6.85,0.0,1011.07,270.0
2019-10-22 02:10,50.63043,-96.9807683333333,17.0,22.3,336,983.64,3.2,89,6.85,0.0,1011.00,270.0
2019-10-22 02:20,50.63044,-96.9807616666667,16.5,22.8,337,983.64,3.2,91,6.84,0.0,1011.00,270.0
2019-10-22 02:30,50.6304366666667,-96.980765,17.0,25.0,338,983.54,3.2,93,6.83,0.0,1010.90,270.0
2019-10-22 02:40,50.6304283333333,-96.9807633333333,17.3,25.6,338,983.32,3.2,94,6.83,0.0,1010.68,270.0
2019-10-22 02:50,50.6304316666667,-96.980765,17.8,25.4,334,982.99,3.1,94,6.81,0.0,1010.35,270.0
2019-10-22 03:00,50.630405,-96.9807533333333,16.9,23.9,335,982.85,3.1,95,6.81,0.0,1010.21,360.0
2019-10-22 03:10,50.6304266666667,-96.9807633333333,17.0,23.3,334,982.59,3.2,95,6.80,0.0,1009.95,360.0
2019-10-22 03:20,50.6304366666667,-96.9807633333333,16.2,22.0,334,982.43,3.2,94,6.79,0.0,1009.79,360.0
2019-10-22 03:30,50.6304283333333,-96.9807666666667,16.2,25.4,333,982.19,3.1,94,6.79,0.0,1009.55,360.0
2019-10-22 03:40,50.6304266666667,-96.980765,15.2,21.3,329,981.98,3.1,94,6.79,0.0,1009.35,360.0
2019-10-22 03:50,50.6304266666667,-96.980765,15.5,21.7,332,981.87,3.1,93,6.79,0.0,1009.23,360.0
2019-10-22 04:00,50.6304283333333,-96.980765,15.6,21.9,333,981.79,3.2,92,6.79,0.0,1009.16,161.1
2019-10-22 04:10,50.6304283333333,-96.9807683333333,16.3,23.2,337,981.75,3.3,92,6.78,0.0,1009.11,161.1
2019-10-22 04:20,50.63043,-96.9807533333333,15.9,22.4,336,981.66,3.3,91,6.78,0.0,1009.02,161.1
2019-10-22 04:30,50.630405,-96.980785,15.6,25.2,333,981.48,3.2,91,6.78,0.0,1008.84,161.1
2019-10-22 04:40,50.6304333333333,-96.980775,16.0,25.1,337,981.32,3.3,91,6.77,0.0,1008.68,161.1
2019-10-22 04:50,50.6304216666667,-96.9807533333333,15.4,22.5,337,981.23,3.3,91,6.77,0.0,1008.58,161.1
2019-10-22 05:00,50.6304366666667,-96.98077,15.9,23.5,334,981.01,3.3,90,6.76,0.0,1008.35,14.5
2019-10-22 05:10,50.6304333333333,-96.980765,15.8,27.2,334,980.91,3.3,90,6.76,0.0,1008.25,14.5
2019-10-22 05:20,50.6304433333333,-96.980745,16.6,23.6,333,980.60,3.3,89,6.75,0.0,1007.93,14.5
2019-10-22 05:30,50.6304366666667,-96.9807533333333,14.4,20.0,327,980.46,3.2,89,6.74,0.0,1007.80,14.5
2019-10-22 05:40,50.63044,-96.9807716666667,15.5,23.0,325,980.17,3.2,88,6.74,0.0,1007.50,14.5
2019-10-22 05:50,50.6304333333333,-96.9807733333333,15.3,21.3,330,980.12,3.3,87,6.74,0.0,1007.43,14.5
2019-10-22 06:00,50.63043,-96.9807516666667,15.3,21.3,331,980.09,3.4,87,6.73,0.0,1007.40,360.0
2019-10-22 06:10,50.63044,-96.9807716666667,15.7,24.3,334,980.06,3.5,86,6.72,0.0,1007.36,360.0
2019-10-22 06:20,50.6304266666667,-96.98076,15.9,22.1,337,980.08,3.6,87,6.72,0.0,1007.37,360.0
2019-10-22 06:30,50.6304366666667,-96.980765,15.3,23.1,335,979.93,3.6,86,6.71,0.0,1007.22,360.0
2019-10-22 06:40,50.63043,-96.9807566666667,16.0,22.5,331,979.62,3.6,87,6.71,0.0,1006.91,360.0
2019-10-22 06:50,50.6304233333333,-96.9807566666667,16.0,21.9,334,979.61,3.6,86,6.70,0.0,1006.89,360.0
2019-10-22 07:00,50.6304333333333,-96.9807683333333,15.5,22.4,331,979.60,3.5,87,6.69,0.0,1006.89,360.0
2019-10-22 07:10,50.6304333333333,-96.9807633333333,14.8,21.1,330,979.59,3.4,88,6.69,0.0,1006.88,360.0
2019-10-22 07:20,50.6304433333333,-96.980755,16.1,23.3,324,979.40,3.2,89,6.68,0.0,1006.70,360.0
2019-10-22 07:30,50.6304266666667,-96.98075,15.6,22.6,323,979.18,3.1,90,6.68,0.0,1006.48,360.0
2019-10-22 07:40,50.63043,-96.9807533333333,16.9,30.2,319,978.82,3.0,90,6.67,0.0,1006.11,360.0
2019-10-22 07:50,50.63043,-96.9807483333333,17.7,24.8,316,978.54,3.0,90,6.67,0.0,1005.82,360.0
2019-10-22 08:00,50.63043,-96.980755,17.9,24.9,316,978.23,2.9,90,6.66,0.0,1005.50,165.5
2019-10-22 08:10,50.630415,-96.9807533333333,18.1,24.1,319,978.17,3.0,90,6.65,0.0,1005.43,165.5
2019-10-22 08:20,50.6304066666667,-96.9807416666667,16.6,23.6,326,978.38,3.1,89,6.64,0.0,1005.63,165.5
2019-10-22 08:30,50.63042,-96.980755,15.3,26.0,327,978.46,3.1,90,6.63,0.0,1005.72,165.5
2019-10-22 08:40,50.6304283333333,-96.9807483333333,17.9,29.0,323,978.08,3.1,89,6.62,0.0,1005.34,165.5
2019-10-22 08:50,50.6304316666667,-96.9807516666667,16.0,23.5,328,978.33,3.0,90,6.62,0.0,1005.59,165.5
2019-10-22 09:00,50.6304333333333,-96.98076,16.8,25.1,331,978.39,3.1,90,6.62,0.0,1005.66,347.4
2019-10-22 09:10,50.630435,-96.9807583333333,19.2,28.6,324,978.06,3.0,90,6.61,0.0,1005.33,347.4
2019-10-22 09:20,50.6304433333333,-96.98078,21.6,32.1,317,977.51,2.9,90,6.60,0.0,1004.78,347.4
2019-10-22 09:30,50.6304366666667,-96.9807716666667,18.9,27.1,330,977.98,3.0,91,6.60,0.0,1005.26,347.4
2019-10-22 09:40,50.6304316666667,-96.98077,17.7,25.1,328,977.99,2.9,91,6.59,0.0,1005.28,347.4
2019-10-22 09:50,50.630425,-96.980765,18.8,25.2,331,977.89,2.9,92,6.58,0.0,1005.17,347.4
2019-10-22 10:00,50.6304233333333,-96.9807366666667,18.0,27.5,327,977.77,2.9,92,6.57,0.0,1005.05,106.8
2019-10-22 10:10,50.630425,-96.980755,17.0,24.6,326,977.66,2.8,92,6.57,0.0,1004.94,106.8
2019-10-22 10:20,50.6304266666667,-96.980755,18.9,27.3,325,977.34,2.8,92,6.56,0.0,1004.61,106.8
2019-10-22 10:30,50.6304266666667,-96.980755,19.5,28.7,322,977.21,2.7,92,6.56,0.0,1004.48,106.8
2019-10-22 10:40,50.6304266666667,-96.9807583333333,19.7,27.9,327,977.26,2.7,92,6.56,0.0,1004.54,106.8
2019-10-22 10:50,50.6304366666667,-96.980785,18.4,30.3,326,977.39,2.6,92,6.55,0.0,1004.67,106.8
2019-10-22 11:00,50.6304316666667,-96.9807633333333,18.2,25.9,323,977.28,2.4,93,6.54,0.0,1004.57,347.4
2019-10-22 11:10,50.6304316666667,-96.98076,18.1,28.3,322,977.31,2.3,93,6.53,0.0,1004.61,347.4
2019-10-22 11:20,50.6304233333333,-96.9807633333333,15.8,22.4,325,977.63,2.3,94,6.53,0.0,1004.93,347.4
2019-10-22 11:30,50.6304083333333,-96.9807833333333,16.7,23.7,325,977.62,2.2,94,6.52,0.0,1004.93,347.4
2019-10-22 11:40,50.6304233333333,-96.9807633333333,19.0,28.2,327,977.48,2.2,95,6.52,0.0,1004.80,347.4
2019-10-22 11:50,50.6304116666667,-96.9807616666667,17.6,24.6,328,977.58,2.1,95,6.51,0.0,1004.90,347.4
2019-10-22 12:00,50.6304383333333,-96.9807733333333,17.6,23.9,328,977.48,2.0,96,6.51,0.0,1004.81,323.4
2019-10-22 12:10,50.6304266666667,-96.9807716666667,17.2,26.0,325,977.34,1.9,96,6.51,0.0,1004.67,323.4
2019-10-22 12:20,50.6304183333333,-96.9807633333333,17.5,25.7,329,977.37,1.9,96,6.50,0.0,1004.71,323.4
2019-10-22 12:30,50.6304416666667,-96.980795,17.9,27.6,327,977.33,1.8,95,6.49,0.0,1004.66,323.4
2019-10-22 12:40,50.6304383333333,-96.9807666666667,17.6,27.5,329,977.39,1.8,96,6.48,0.0,1004.74,323.4
2019-10-22 12:50,50.6304366666667,-96.98077,18.4,28.4,331,977.32,1.8,96,6.47,0.0,1004.67,323.4
2019-10-22 13:00,50.6304233333333,-96.9807583333333,17.6,29.8,328,977.33,1.8,96,6.47,0.0,1004.69,270.0
2019-10-22 13:10,50.63043,-96.9807666666667,17.9,25.9,327,977.21,1.7,95,6.46,0.0,1004.57,270.0
2019-10-22 13:20,50.6304366666667,-96.9807716666667,18.3,26.4,324,977.07,1.6,96,6.45,0.0,1004.44,270.0
2019-10-22 13:30,50.630425,-96.9807683333333,17.7,29.8,322,977.02,1.5,96,6.45,0.0,1004.39,270.0
2019-10-22 13:40,50.6304283333333,-96.9807616666667,16.6,24.6,322,977.06,1.5,96,6.44,0.0,1004.44,270.0
2019-10-22 13:50,50.6304166666667,-96.9807466666667,16.0,24.4,323,977.06,1.5,97,6.43,0.0,1004.44,270.0
2019-10-22 14:00,50.63043,-96.9807533333333,16.4,24.5,320,976.92,1.5,96,6.43,0.0,1004.30,125.3
2019-10-22 14:10,50.6304366666667,-96.98075,16.9,24.4,318,976.77,1.5,96,6.42,0.0,1004.15,125.3
2019-10-22 14:20,50.6304216666667,-96.9807566666667,16.4,25.9,319,976.77,1.5,96,6.41,0.0,1004.15,125.3
2019-10-22 14:30,50.6304283333333,-96.9807583333333,17.3,23.8,318,976.78,1.5,96,6.41,0.0,1004.17,125.3
2019-10-22 14:40,50.63043,-96.98075,16.9,24.0,320,976.83,1.5,97,6.40,0.0,1004.21,125.3
2019-10-22 14:50,50.6304166666667,-96.98075,17.2,25.4,323,976.83,1.6,96,6.40,0.0,1004.21,125.3
2019-10-22 15:00,50.63043,-96.9807466666667,17.0,27.0,323,976.78,1.6,96,6.39,0.0,1004.16,137.0
2019-10-22 15:10,50.6304166666667,-96.9807583333333,17.6,25.5,322,976.67,1.5,97,6.38,0.0,1004.06,137.0
2019-10-22 15:20,50.6304183333333,-96.9807633333333,18.1,28.0,323,976.69,1.4,97,6.38,0.0,1004.09,137.0
2019-10-22 15:30,50.6304266666667,-96.9807533333333,16.8,24.8,319,976.70,1.2,99,6.37,0.0,1004.11,137.0
2019-10-22 15:40,50.6304083333333,-96.98079,15.0,21.9,316,976.72,1.1,99,6.37,0.0,1004.14,137.0
2019-10-22 15:50,50.63043,-96.9807566666667,14.9,24.3,319,976.76,1.0,99,6.37,0.0,1004.18,137.0
2019-10-22 16:00,50.63043,-96.9807583333333,16.0,26.5,317,976.62,1.0,99,6.37,0.0,1004.03,90.0
2019-10-22 16:10,50.63043,-96.9807583333333,15.3,22.0,316,976.64,1.0,99,6.36,0.0,1004.06,90.0
2019-10-22 16:20,50.63043,-96.98076,14.9,21.3,318,976.66,1.1,99,6.36,0.0,1004.08,90.0
2019-10-22 16:30,50.6304266666667,-96.9807416666667,16.1,22.6,318,976.80,1.0,99,6.35,0.0,1004.23,90.0
2019-10-22 16:40,50.63042,-96.98074,15.3,21.9,317,976.81,1.1,99,6.35,0.0,1004.23,90.0
2019-10-22 16:50,50.6304316666667,-96.9807583333333,16.6,26.8,316,976.75,1.1,99,6.34,0.0,1004.16,90.0
2019-10-22 17:00,50.630435,-96.9807566666667,16.3,25.3,320,976.79,1.1,99,6.33,0.0,1004.20,345.5
2019-10-22 17:10,50.6304266666667,-96.980765,17.0,25.8,316,976.74,1.1,99,6.33,0.0,1004.16,345.5
2019-10-22 17:20,50.6304333333333,-96.9807583333333,17.0,23.2,317,976.68,1.2,99,6.32,0.0,1004.11,345.5
2019-10-22 17:30,50.6304166666667,-96.980745,17.9,24.9,317,976.64,1.2,99,6.32,0.0,1004.07,345.5
2019-10-22 17:40,50.6304283333333,-96.980755,17.0,24.9,318,976.65,1.3,99,6.32,0.0,1004.08,345.5
2019-10-22 17:50,50.63043,-96.9807583333333,16.3,26.2,317,976.63,1.3,98,6.31,0.0,1004.06,345.5
2019-10-22 18:00,50.6304316666667,-96.9807783333333,16.6,28.1,316,976.51,1.3,97,6.31,0.0,1003.93,281.8
2019-10-22 18:10,50.630425,-96.9807566666667,15.4,20.8,317,976.54,1.4,96,6.31,0.0,1003.96,281.8
2019-10-22 18:20,50.6304366666667,-96.9807666666667,17.1,24.6,316,976.47,1.3,95,6.31,0.0,1003.89,281.8
2019-10-22 18:30,50.6304283333333,-96.980755,17.4,27.1,317,976.42,1.4,94,6.31,0.0,1003.83,281.8
2019-10-22 18:40,50.6304216666667,-96.9807583333333,17.3,24.8,316,976.37,1.5,93,6.31,0.0,1003.78,281.8
2019-10-22 18:50,50.630425,-96.9807583333333,17.7,26.7,315,976.35,1.6,93,6.30,0.0,1003.75,281.8
2019-10-22 19:00,50.6304266666667,-96.9807583333333,18.0,26.2,315,976.28,1.7,93,6.30,0.0,1003.67,0.0
2019-10-22 19:10,50.6304366666667,-96.98076,17.2,24.5,314,976.12,1.7,94,6.30,0.0,1003.51,0.0
2019-10-22 19:20,50.6304366666667,-96.9807633333333,16.2,23.4,314,976.24,1.8,94,6.30,0.0,1003.62,0.0
2019-10-22 19:30,50.630455,-96.9807566666667,16.1,23.6,316,976.25,1.9,93,6.29,0.0,1003.62,0.0
2019-10-22 19:40,50.6304366666667,-96.980755,15.8,23.7,316,976.26,1.9,91,6.28,0.0,1003.63,0.0
2019-10-22 19:50,50.6304366666667,-96.9807633333333,17.1,28.9,316,976.27,2.0,89,6.29,0.0,1003.64,0.0
2019-10-22 20:00,50.6304383333333,-96.9807616666667,17.0,24.9,319,976.31,2.0,88,6.29,0.0,1003.68,360.0
2019-10-22 20:10,50.6304333333333,-96.98075,16.5,23.9,318,976.37,2.1,87,6.28,0.0,1003.74,360.0
2019-10-22 20:20,50.6304333333333,-96.9807616666667,16.0,22.6,317,976.41,2.1,87,6.27,0.0,1003.77,360.0
2019-10-22 20:30,50.630425,-96.9807666666667,14.7,19.6,315,976.54,2.2,87,6.28,0.0,1003.89,360.0
2019-10-22 20:40,50.6304283333333,-96.9807583333333,13.7,19.9,317,976.66,2.3,87,6.28,0.0,1004.00,360.0
2019-10-22 20:50,50.6304266666667,-96.9807583333333,13.1,18.4,318,976.84,2.4,86,6.28,0.0,1004.18,360.0
2019-10-22 21:00,50.6304283333333,-96.9807683333333,16.0,24.8,318,976.78,2.4,86,6.28,0.0,1004.12,113.6
2019-10-22 21:10,50.6304233333333,-96.9807533333333,14.5,21.9,319,977.04,2.3,86,6.27,0.0,1004.38,113.6
2019-10-22 21:20,50.630425,-96.9807566666667,15.3,25.1,314,977.05,2.4,85,6.26,0.0,1004.40,113.6
2019-10-22 21:30,50.6304283333333,-96.9807583333333,14.8,24.5,310,977.15,2.2,85,6.26,0.0,1004.50,113.6
2019-10-22 21:40,50.6304333333333,-96.9807566666667,15.2,22.2,312,977.17,2.2,85,6.26,0.0,1004.51,113.6
2019-10-22 21:50,50.6304233333333,-96.9807633333333,15.2,23.3,316,977.27,2.3,85,6.23,0.0,1004.61,113.6
2019-10-22 22:00,50.6304283333333,-96.9807633333333,15.9,25.4,314,977.28,2.2,85,6.22,0.0,1004.62,270.0
2019-10-22 22:10,50.6304283333333,-96.980785,16.6,24.3,315,977.30,2.1,86,6.22,0.0,1004.65,270.0
2019-10-22 22:20,50.6304233333333,-96.9807633333333,17.5,24.6,314,977.31,2.0,86,6.23,0.0,1004.66,270.0
2019-10-22 22:30,50.6304266666667,-96.9807583333333,17.4,24.4,316,977.35,1.9,88,6.24,0.0,1004.70,270.0
2019-10-22 22:40,50.6304266666667,-96.9807566666667,14.7,20.8,316,977.61,1.9,90,6.24,0.0,1004.96,270.0
2019-10-22 22:50,50.630425,-96.9807583333333,15.5,23.9,314,977.59,1.8,91,6.24,0.0,1004.95,270.0
2019-10-22 23:00,50.630425,-96.9807583333333,16.3,26.3,317,977.61,1.8,91,6.24,0.0,1004.97,161.1
2019-10-22 23:10,50.6304266666667,-96.98076,14.0,24.3,313,977.81,1.7,93,6.24,0.0,1005.18,161.1
2019-10-22 23:20,50.6304283333333,-96.98076,13.5,18.9,313,977.83,1.6,95,6.23,0.0,1005.21,161.1
2019-10-22 23:30,50.6304283333333,-96.9807616666667,12.2,19.5,313,977.94,1.5,97,6.22,0.0,1005.33,161.1
2019-10-22 23:40,50.6304283333333,-96.9807616666667,13.9,21.4,311,977.82,1.4,97,6.21,0.0,1005.21,161.1
2019-10-22 23:50,50.6304183333333,-96.98075,13.3,19.2,313,977.87,1.5,96,6.21,0.0,1005.27,161.1
